Location: Julian California
(33.0790°N, 116.6010°W)
Time: 23:58:36
(UTC-08:00)

Cosmos 1633 Rocket - Pass Details

Date: 12 July 2018
Orbit: 606 x 625 km, 82.5° (Epoch: 20 November)

Event Time Altitude Azimuth Distance (km) Brightness Sun altitude
Exits shadow 22:49:42 47° 6° (N) 824 3.9 -27.8°
Drops below altitude 10° 22:52:52 10° 6° (N) 1,992 6.3 -28.2°
Sets 22:55:06 0° 7° (N) 2,900 7.2 -28.4°
